Location: Campillo
(40.8621°N, 4.2488°W)
Time: 04:16:04
(UTC+00:00)

Cosmos 158 Rocket - Pass Details

Date: 25 September 2021
Orbit: 699 x 792 km, 74.0° (Epoch: 19 October)

Event Time Altitude Azimuth Distance (km) Brightness Sun altitude
Rises 21:18:37 0° 325° (NW) 3,145 8.1 -34.9°
Reaches altitude 10° 21:21:32 10° 308° (NW) 2,204 7.2 -35.3°
Enters shadow 21:24:47 20° 267° (W) 1,632 6.1 -35.8°
